Terminal Aerodrome Forecast
Issued by NWS

Home | Current Version | Previous Version | Text Only | Print | Product List | Glossary On
Versions: 1 2 3 4 5 6 7 8 9 10 11 12 13 14 15 16 17 18 19 20 21 22 23 24 25 26 27 28 29 30 31 32 33 34 35 36 37 38 39 40 41 42 43 44 45 46 47 48 49 50
000
FTAK31 PANC 141138
TAFASN
TAF
PASN 141138Z 1412/1512 05007KT 2SM BR SCT250
      TEMPO 1412/1416 1 1/2SM BR
     FM141800 06007KT P6SM SCT250
     FM150400 11008KT 1/2SM BR BKN007=

USA.gov is the U.S. government's official web portal to all federal, state and local government web resources and services.